GFSSE_925_spd_000.txt.gz
Wind_Speed
19 20 20 20 21 20 19 18 18 17 17 17 17 17 16 16 16 14 14 14 14 13 13 12 12 11 9 7 5 4 2 1 2 1 1 3 2 4 6 8 7 7 3
26 22 21 21 20 20 19 18 18 17 17 16 15 15 15 14 12 12 12 11 11 12 11 11 11 12 12 10 8 6 2 2 1 1 2 2 2 3 3 3 4 5 3
26 23 21 21 21 20 19 19 18 16 15 14 13 13 12 11 11 11 11 12 12 12 12 12 12 12 12 10 9 7 5 2 4 4 3 4 5 6 4 6 5 3 3
27 24 22 21 20 20 20 19 17 16 15 14 13 12 10 10 10 11 12 12 12 10 11 11 11 11 10 10 9 7 5 3 1 3 6 6 5 7 7 5 6 6 3
27 24 23 21 20 20 19 18 17 16 14 13 11 11 10 10 10 11 10 10 9 9 9 10 10 9 9 8 8 7 6 5 4 3 4 5 6 10 13 8 10 6 6
27 25 23 21 20 19 18 18 16 15 13 10 11 11 10 9 9 9 8 8 7 8 7 8 8 8 8 8 8 7 8 6 5 4 4 4 4 8 9 9 8 7 8
26 23 21 20 19 18 17 15 14 13 12 11 10 9 9 9 7 8 7 7 7 7 7 8 8 9 8 8 9 9 8 8 7 6 6 7 7 9 13 11 12 10 9
27 24 22 19 17 16 14 14 13 12 12 11 10 8 8 8 7 8 9 8 7 7 7 9 10 9 10 10 9 9 10 10 9 8 8 5 7 7 7 5 7 9 10
25 23 21 18 17 15 14 13 12 12 11 10 9 8 8 8 9 8 8 9 9 9 9 9 12 11 11 9 9 12 11 12 11 11 10 6 7 9 7 9 9 12 13
22 21 20 18 15 14 14 12 11 11 11 10 8 9 8 7 8 8 7 8 8 8 9 8 12 10 12 11 15 17 13 12 10 11 13 11 11 10 10 10 13 15 14
24 23 20 18 15 15 13 13 12 12 11 11 10 7 5 6 6 5 4 4 5 6 8 7 10 11 11 12 15 17 16 12 11 11 13 14 11 12 16 14 12 13 15
26 24 21 17 17 15 15 13 13 12 10 9 7 7 4 3 2 3 5 5 7 8 9 8 9 9 9 12 14 15 16 14 12 14 15 14 16 16 16 19 17 14 16
28 25 22 18 17 15 14 13 11 11 11 8 5 5 3 1 3 3 4 6 6 8 11 11 10 11 12 13 13 13 15 14 11 11 14 15 14 16 17 19 19 15 15
31 28 23 19 18 15 11 13 12 12 12 8 6 6 4 3 0 1 3 5 7 9 11 13 12 15 18 20 20 18 17 14 12 11 11 15 19 20 19 19 17 18 19
35 31 26 22 16 13 10 11 14 12 12 11 11 8 3 4 2 3 2 4 7 9 12 11 11 16 20 22 22 23 24 21 17 15 15 15 16 17 19 22 21 19 18
35 31 25 22 21 17 12 14 11 14 13 14 12 9 4 2 5 3 2 6 9 12 15 16 18 21 24 25 27 25 26 28 27 23 22 21 21 21 20 21 22 23 23
38 35 30 25 20 15 16 15 14 12 9 11 15 11 8 4 3 4 5 10 12 15 18 19 20 20 19 18 20 19 19 21 23 26 28 30 29 26 26 25 25 24 24
36 35 34 24 19 14 13 12 12 11 8 8 9 9 8 6 3 5 8 12 14 15 19 20 17 14 15 17 20 19 22 22 23 24 27 31 28 34 32 31 30 27 26
38 37 31 18 22 12 14 13 16 11 8 10 10 7 7 5 8 10 12 14 17 14 16 17 15 15 18 20 22 23 25 28 29 29 27 24 24 29 34 39 37 35 31
25 24 20 19 16 16 15 16 14 14 13 9 8 6 6 6 7 10 17 16 11 10 11 12 14 18 20 23 27 27 27 27 26 19 18 15 20 17 14 20 31 39 38
22 17 15 19 15 16 19 18 14 11 7 6 7 6 8 11 16 18 15 9 8 9 11 13 14 16 18 23 26 28 26 26 19 24 15 14 16 17 21 25 22 22 34
28 26 21 18 18 15 14 10 5 3 5 5 5 6 12 14 11 10 10 12 12 13 15 17 18 19 16 17 13 14 6 19 19 18 17 17 24 23 26 24 21 22 18
23 19 18 17 15 14 10 5 3 1 2 7 11 12 10 6 7 10 13 15 16 16 16 17 18 19 16 15 10 5 3 3 6 11 23 19 27 26 29 25 22 22 22
16 15 14 11 8 5 5 6 4 2 4 6 3 5 2 6 10 14 14 15 14 13 15 15 17 16 17 13 11 9 6 4 2 7 7 25 23 32 31 29 30 21 16
11 10 6 5 4 5 4 5 3 3 4 3 4 1 5 9 12 15 17 16 14 15 16 15 15 15 14 11 10 10 9 11 5 5 10 11 21 26 33 28 21 19 15
7 4 3 0 2 5 6 6 6 5 5 4 2 6 12 12 11 11 11 11 12 14 15 14 14 16 19 19 19 17 13 7 8 5 6 18 20 21 24 23 14 19 17

GFSSE_925_spd_006.txt.gz
Wind_Speed
22 24 23 24 24 23 22 21 21 20 18 17 16 15 14 13 12 11 11 10 9 11 11 11 12 11 10 9 7 5 5 6 6 8 8 10 10 10 12 13 13 13 11
26 25 25 24 24 23 22 21 20 19 17 16 14 13 12 11 10 11 10 10 11 13 13 14 14 13 11 10 9 8 8 7 7 9 10 11 11 13 13 12 13 12 10
26 26 25 24 24 23 22 21 19 17 15 15 13 11 11 11 11 11 10 10 12 13 13 13 12 11 10 10 10 8 8 8 8 9 10 13 14 12 10 12 12 13 12
26 25 24 23 24 23 22 20 17 16 15 14 12 10 11 10 10 10 11 11 11 12 13 12 12 11 11 11 11 12 11 11 11 9 10 11 14 14 13 12 12 12 9
25 24 24 23 23 22 21 19 17 15 14 13 11 11 10 9 9 10 10 10 10 12 12 12 12 11 11 12 13 13 14 14 14 13 12 12 13 12 14 13 17 15 9
23 22 22 22 22 21 20 18 16 14 13 11 11 10 9 8 9 10 10 10 11 12 12 12 12 12 12 12 13 14 14 15 16 15 14 14 12 11 14 16 18 12 8
21 21 21 21 21 20 18 17 16 14 12 12 10 9 8 8 9 10 10 11 13 14 15 15 15 15 15 15 15 16 14 15 16 15 14 14 12 12 14 16 16 12 8
24 22 20 19 19 18 17 16 15 13 12 11 9 8 7 8 10 11 11 12 14 14 16 16 16 16 16 15 16 17 17 14 15 14 15 15 12 10 14 15 14 12 10
21 21 20 19 17 17 16 15 13 12 11 10 9 8 8 9 10 11 11 11 12 12 12 14 15 16 16 16 17 18 18 18 16 14 14 15 14 12 11 14 16 16 13
18 18 18 18 18 17 15 14 14 13 11 9 8 9 9 9 8 8 8 8 8 8 7 9 10 13 14 15 17 18 18 19 18 18 16 13 13 13 12 12 15 18 18
18 18 19 19 19 17 17 15 14 12 11 11 10 9 8 8 7 7 4 4 5 5 4 4 5 6 8 10 11 12 15 17 18 18 19 18 15 13 13 14 15 18 19
19 21 21 19 18 18 16 16 15 14 13 12 11 9 8 7 4 3 3 2 3 3 5 7 7 7 8 11 12 12 12 13 15 15 16 16 17 17 14 13 15 18 19
27 23 21 19 18 18 17 16 16 15 14 11 9 9 7 5 3 3 3 2 4 5 7 8 8 8 10 12 15 15 14 14 17 17 18 19 17 18 19 16 16 16 18
26 24 22 19 17 16 16 16 15 14 13 11 9 7 5 3 2 3 1 2 3 4 6 9 10 11 12 14 15 15 13 12 13 15 17 18 20 20 21 21 20 18 17
24 24 22 19 18 17 15 14 13 12 10 8 7 6 5 4 3 2 0 2 4 6 8 10 12 12 12 12 14 13 11 13 13 14 14 14 16 19 22 24 25 24 23
22 22 20 19 15 13 10 9 10 10 9 9 9 6 5 4 4 3 1 2 6 10 13 15 14 11 9 10 8 8 11 15 18 20 18 16 14 15 18 20 22 25 27
22 20 20 19 15 11 5 7 10 12 13 15 11 8 5 2 2 3 1 5 9 13 13 10 8 7 8 8 10 11 12 16 19 22 20 15 15 14 14 15 18 22 26
16 16 14 16 14 9 8 5 3 15 9 4 7 9 8 6 4 5 8 11 12 10 8 8 8 9 9 12 13 15 16 18 21 16 11 11 11 11 13 18 18 18 19
12 11 13 14 12 11 6 9 5 6 12 11 9 7 7 7 10 13 13 11 9 8 9 10 11 13 12 14 17 15 18 19 15 8 9 10 10 13 16 20 23 23 23
12 16 20 19 15 9 6 12 13 13 11 7 7 6 8 9 9 9 9 9 8 9 10 11 12 13 14 17 18 15 20 11 10 8 11 10 11 13 17 23 27 28 28
22 22 18 14 14 18 21 15 10 6 3 2 5 6 7 7 7 7 8 9 10 11 11 12 14 16 18 19 9 22 15 1 6 12 9 13 14 19 22 27 30 31 31
23 18 18 21 20 18 12 6 1 2 4 4 5 7 7 8 9 10 11 13 13 12 11 12 15 17 12 14 8 7 3 5 4 19 9 17 18 25 24 28 30 31 30
24 23 21 19 16 10 9 8 5 3 2 1 3 6 8 8 9 11 14 17 15 10 7 9 13 16 9 8 7 5 3 2 7 9 19 14 29 21 27 29 29 26 27
19 17 15 13 11 9 6 5 3 2 0 1 3 7 10 14 16 19 23 16 12 5 7 10 9 10 8 8 6 7 6 4 2 4 7 20 18 26 27 27 27 27 21
11 11 9 8 7 4 3 3 3 0 1 4 6 7 18 24 23 20 20 18 10 4 5 4 5 7 8 6 5 6 6 9 6 5 7 10 19 17 17 27 25 22 24
8 8 7 6 8 7 7 9 9 7 4 1 5 11 18 22 23 24 17 7 1 6 8 9 10 9 6 6 6 6 6 3 6 3 3 9 14 18 25 16 20 25 20

GFSSE_925_spd_009.txt.gz
Wind_Speed
18 20 24 24 25 25 24 23 22 21 19 19 18 16 14 12 11 10 9 8 9 11 13 12 12 12 10 9 10 9 9 8 8 8 8 9 10 11 11 13 13 12 12
24 20 23 24 24 24 23 22 21 20 18 17 16 14 12 11 9 9 9 10 11 12 13 13 12 12 11 10 10 10 10 10 11 11 11 11 11 11 10 12 12 12 11
23 20 22 22 24 24 23 22 20 18 17 16 14 12 12 11 9 9 11 11 12 13 13 13 13 13 13 13 13 13 12 12 12 13 14 12 11 12 10 11 12 12 10
25 21 22 22 23 23 21 20 19 17 16 15 13 12 12 10 9 11 10 10 11 11 11 12 12 12 13 13 14 15 15 14 14 14 12 14 13 12 11 12 13 14 8
24 24 24 22 22 22 20 18 17 16 15 14 13 12 11 10 10 11 10 10 11 11 11 12 12 12 13 14 15 14 14 15 16 15 13 13 12 11 12 14 15 13 7
23 23 23 22 22 21 19 17 16 15 13 13 12 11 10 10 11 10 10 10 12 13 13 14 14 14 15 15 16 16 13 15 15 13 14 15 13 12 13 16 16 15 10
19 20 21 21 21 20 18 15 15 14 12 12 11 10 9 10 11 10 11 12 13 16 15 16 16 16 15 15 17 18 17 15 14 12 13 14 14 12 13 13 15 13 11
22 21 20 19 19 17 16 15 14 13 13 12 11 9 10 11 11 11 11 12 12 14 14 16 15 15 15 15 16 18 18 18 18 14 13 12 13 13 11 11 12 13 12
19 20 19 19 18 16 15 15 14 14 12 11 10 9 11 12 11 10 10 10 10 10 11 13 13 13 13 13 14 15 16 16 17 17 17 12 13 14 11 10 11 12 13
17 18 17 16 16 16 15 13 13 12 11 10 9 9 11 11 11 9 7 7 6 7 6 7 7 8 8 9 10 11 12 13 14 15 15 14 14 13 12 11 11 12 12
18 17 15 15 16 17 15 14 11 11 9 8 9 9 9 9 8 6 4 4 3 3 3 3 4 5 5 7 9 11 11 11 13 13 13 15 15 15 14 14 13 14 13
16 15 15 16 17 15 14 12 11 10 8 7 8 8 7 6 4 3 1 1 1 1 4 6 6 6 8 9 10 12 13 14 14 14 13 14 16 16 15 14 16 16 16
13 15 18 16 14 13 10 9 7 6 6 5 5 5 4 3 2 2 1 1 2 3 4 6 7 8 9 11 11 12 13 13 12 12 13 14 15 15 16 15 14 15 18
15 15 16 14 12 11 7 5 2 2 2 3 2 4 5 5 4 3 1 1 2 4 6 8 10 12 12 11 11 11 10 9 10 11 12 13 13 12 14 15 16 16 14
15 16 14 12 11 10 7 6 3 3 7 7 6 7 8 6 4 3 2 0 3 5 8 10 11 10 9 8 8 7 7 8 11 12 13 15 15 15 15 14 15 17 17
13 14 12 12 11 11 8 7 7 5 9 10 11 9 9 7 4 2 1 3 5 9 11 11 9 6 5 5 4 5 8 10 11 13 11 13 14 14 15 15 15 15 15
10 9 13 13 11 10 9 14 12 11 17 25 16 9 8 3 3 3 3 6 9 10 8 6 5 4 3 4 6 7 9 11 11 11 9 9 9 11 11 13 14 16 18
11 10 14 14 15 17 15 10 9 15 11 9 3 7 7 5 4 4 6 6 6 6 6 5 5 5 5 7 10 10 11 11 10 3 3 4 5 6 9 12 15 19 22
8 14 16 18 19 15 9 3 10 1 6 7 5 5 3 3 3 5 5 5 4 5 5 5 6 6 7 10 12 11 14 13 6 1 2 4 6 8 10 14 18 20 22
13 18 20 19 16 12 6 6 13 14 11 7 3 4 3 4 5 5 6 5 6 7 7 8 8 8 6 10 13 11 14 10 3 1 4 5 7 10 12 15 17 19 25
18 18 16 15 12 11 16 20 16 11 6 4 4 2 3 3 4 6 7 9 11 12 13 12 10 9 9 12 12 15 14 5 2 1 4 6 9 12 14 17 19 22 22
18 17 17 17 19 20 21 17 7 7 6 5 4 2 3 5 7 9 12 16 15 12 10 8 7 7 7 8 9 12 6 8 10 7 8 9 13 15 18 22 22 22 22
17 20 21 22 19 14 10 8 8 7 7 4 2 3 8 13 15 15 15 16 13 12 6 4 5 7 10 8 6 5 5 5 14 11 16 15 19 21 21 20 21 21 21
19 19 18 16 11 9 6 4 4 3 3 2 3 5 11 13 14 15 16 16 12 7 1 3 6 8 8 9 9 6 7 11 7 9 15 19 18 21 20 18 21 20 21
18 15 15 14 11 10 10 10 10 9 7 5 3 5 10 16 19 18 16 17 12 4 0 2 4 6 6 6 5 7 8 10 10 10 11 16 19 17 17 19 16 19 20
17 16 17 19 20 20 20 20 18 15 10 7 9 13 14 20 22 21 19 15 9 4 1 2 4 4 1 2 3 4 7 9 10 10 10 16 20 21 20 20 19 19 21

GFSSE_925_spd_012.txt.gz
Wind_Speed
21 23 24 23 23 23 22 21 21 19 18 16 15 15 14 12 10 10 10 11 12 13 13 12 11 11 11 11 12 11 12 13 12 12 11 11 11 12 10 12 11 11 12
23 23 25 23 23 23 22 21 19 17 17 15 14 12 12 10 10 9 10 11 13 12 12 12 11 12 12 13 13 13 13 13 13 13 12 10 10 10 10 12 12 11 11
22 22 24 23 23 22 21 20 18 17 15 14 13 12 11 10 9 10 11 12 12 11 11 10 12 13 12 13 14 14 14 14 15 14 15 10 10 12 12 12 12 13 10
22 22 22 23 23 22 20 18 16 15 14 13 12 11 10 10 10 11 12 11 10 9 9 9 11 11 12 14 13 13 14 15 16 16 11 11 9 12 12 13 13 11 7
18 21 22 23 22 21 19 16 15 15 13 12 11 11 10 10 11 11 11 10 9 9 9 10 12 12 13 16 16 14 15 15 16 13 11 11 9 11 11 11 12 11 7
18 19 22 23 21 19 18 16 15 14 12 11 11 10 9 10 10 10 10 10 10 11 12 13 14 13 14 16 17 19 18 16 14 12 11 11 10 10 11 11 11 9 8
19 17 22 20 18 18 17 15 14 12 11 11 10 9 9 10 10 10 11 11 12 13 14 14 13 13 13 14 16 17 17 18 13 12 11 10 11 11 10 10 10 11 9
17 15 16 18 17 16 14 13 12 10 10 8 8 7 8 9 10 11 11 11 11 13 13 12 12 11 11 12 13 14 15 15 12 13 12 11 13 12 10 9 10 10 10
17 16 16 15 14 13 12 10 9 8 7 6 5 6 8 9 9 9 9 9 8 9 9 8 8 7 8 9 10 11 12 13 12 11 11 10 12 12 11 10 9 10 10
13 14 14 14 13 11 9 9 7 6 5 4 4 6 6 7 7 6 7 4 5 4 4 3 3 3 4 6 8 10 10 10 12 11 10 8 10 11 10 10 10 10 12
13 12 12 12 11 10 8 6 5 4 4 3 3 4 4 3 2 1 2 2 2 1 2 3 4 6 7 10 12 12 12 13 13 13 11 10 12 11 9 9 10 11 11
13 12 11 10 10 9 8 7 6 5 3 3 2 2 1 1 1 2 2 2 1 3 4 5 4 6 9 10 11 13 13 13 12 12 9 13 13 13 11 9 8 9 11
13 11 10 10 10 10 8 7 6 6 4 3 3 2 2 4 5 5 3 3 3 4 4 5 6 7 10 10 11 11 12 12 11 11 8 11 11 11 11 10 10 9 8
13 11 9 9 9 9 9 7 7 6 5 4 2 3 3 4 6 7 5 4 3 3 5 6 7 9 10 10 9 9 9 9 10 10 8 11 10 10 9 10 10 13 11
11 10 11 10 9 8 9 8 8 6 4 3 1 2 2 3 6 9 7 5 4 4 5 8 9 11 11 11 10 8 8 9 8 9 8 11 10 10 10 10 10 11 14
9 11 12 12 12 11 10 10 9 8 10 10 8 10 5 3 11 12 6 5 6 6 7 9 10 11 12 11 11 9 9 9 10 10 10 10 12 10 9 10 12 12 13
11 13 14 15 14 14 15 14 12 16 16 9 10 11 8 8 8 6 5 5 6 6 7 9 10 10 11 11 12 13 13 12 12 12 11 10 10 12 13 10 10 13 13
10 13 15 15 16 17 20 18 5 11 13 11 4 7 8 6 5 3 3 3 4 7 8 9 9 12 12 13 13 15 16 15 15 13 11 10 10 10 11 15 14 14 16
11 14 15 15 16 16 19 15 13 11 9 6 6 4 3 1 1 0 1 3 6 7 7 8 9 10 13 14 15 18 18 19 19 18 13 10 7 7 10 13 17 16 20
12 14 16 17 17 14 11 7 8 10 8 6 4 3 4 2 3 3 4 5 6 7 9 10 12 14 14 14 18 20 19 21 20 17 12 10 9 10 11 13 16 16 19
13 15 17 16 15 12 11 12 12 10 6 4 4 5 4 4 4 4 4 7 9 11 12 12 14 17 16 15 20 19 21 22 11 13 13 14 14 14 16 17 19 19 19
15 14 14 14 14 12 12 10 8 8 5 6 5 4 4 5 5 6 7 9 11 13 15 13 12 13 15 12 15 20 10 16 18 9 15 18 17 17 20 20 20 19 19
16 17 17 17 15 11 9 7 7 8 7 4 2 2 3 5 6 8 9 10 12 14 16 12 9 9 13 14 11 13 9 10 18 21 16 19 17 20 19 19 18 19 19
16 16 17 14 11 8 6 7 5 3 2 3 2 1 3 6 9 11 12 13 14 15 13 10 8 8 9 13 14 15 13 15 10 11 20 20 22 20 21 20 20 22 21
15 14 13 13 12 11 11 10 8 7 6 4 3 6 10 12 14 15 16 16 16 14 10 7 7 7 11 12 16 15 14 14 14 13 11 18 21 20 19 18 21 22 22
13 13 13 14 15 14 14 13 13 10 7 6 8 11 13 17 18 18 19 18 16 12 9 7 6 8 12 12 10 9 11 12 14 14 12 17 20 23 20 21 20 22 22